Probability
0 0 0 0 0 0 0 0 0 0 0 0 0 0 0 0 0 0 0 0 0 0 0 0 0 0 0 0 0 0 0 0 0 0 0 0 0 0 0 0 0 0 0 0
0 0 0 0 0 0 0 0 0 0 0 0 0 0 0 0 0 0 0 0 0 0 0 0 0 0 0 0 0 0 0 0 0 0 0 0 0 0 0 0 0 0 0 0
0 0 0 0 0 0 0 0 0 0 0 0 0 0 0 0 0 0 0 0 0 0 0 0 0 0 0 0 0 0 0 0 0 0 0 0 0 0 0 0 0 0 0 0
0 0 0 0 0 0 0 0 0 0 0 0 0 0 0 0 0 0 0 0 0 0 0 0 0 0 0 0 0 0 0 0 0 0 0 0 0 0 0 0 0 0 0 0
0 0 0 0 0 0 0 0 0 0 0 0 0 0 0 0 0 0 0 0 0 0 0 0 0 0 0 0 0 0 0 0 0 0 0 0 0 0 0 0 0 0 0 0
0 0 0 0 0 0 0 0 0 0 0 0 0 0 0 0 0 0 0 0 0 0 0 0 0 0 0 0 0 0 0 0 0 0 0 0 0 0 0 0 0 0 0 0
0 0 0 0 0 0 0 0 0 0 0 0 0 0 0 0 0 0 0 0 0 0 0 0 0 0 0 0 0 0 0 0 0 0 0 0 0 0 0 0 0 0 0 0
0 0 0 0 0 0 0 0 0 0 0 0 0 0 0 0 0 0 0 0 0 0 0 0 0 0 0 0 0 0 0 0 0 0 0 0 0 0 0 0 0 0 0 0
0 0 0 0 0 0 0 0 0 0 0 0 0 0 0 0 0 0 0 0 0 0 0 0 0 0 0 0 0 0 0 0 0 0 0 0 0 0 0 0 0 0 0 0
0 0 0 0 0 0 0 0 0 0 0 0 0 0 0 0 0 0 0 0 0 0 0 0 0 0 0 0 0 0 0 0 0 0 0 0 0 0 0 0 0 0 0 0
0 0 0 0 0 0 0 0 0 0 0 0 0 0 0 0 0 0 0 0 0 0 0 0 0 0 0 0 0 0 0 0 0 0 0 0 0 0 0 0 0 0 0 0
0 0 0 0 0 0 0 0 0 0 0 0 0 0 0 0 0 0 0 0 0 0 0 0 0 0 0 0 0 0 0 0 0 0 0 0 0 0 0 0 0 0 0 0
0 0 0 0 0 0 0 0 0 0 0 0 0 0 0 0 0 0 0 0 0 0 0 0 0 0 0 0 0 0 0 0 0 0 0 0 0 0 0 0 0 0 0 0
0 0 0 0 0 0 0 0 0 0 0 0 0 0 0 0 0 0 0 0 0 0 0 0 0 0 0 0 0 0 0 0 0 0 0 0 0 0 0 0 0 0 0 0
0 0 0 0 0 0 0 0 0 0 0 0 0 0 0 0 0 0 0 0 0 0 0 0 0 0 0 0 0 0 0 0 0 0 0 0 0 0 0 0 0 0 0 0
0 0 0 0 0 0 0 0 0 0 0 0 0 0 0 0 0 0 0 0 0 0 0 0 0 0 0 0 0 0 0 0 0 0 0 0 0 0 0 0 0 0 0 0
0 0 0 0 0 0 0 0 0 0 0 0 0 0 0 0 0 0 0 0 0 0 0 0 0 0 0 0 0 0 0 0 0 0 0 0 0 0 0 0 0 0 0 0
0 0 0 0 0 0 0 0 0 0 0 0 0 0 0 0 0 0 0 0 0 0 0 0 0 0 0 0 0 0 0 0 0 0 0 0 0 0 0 0 0 0 0 0
0 0 0 0 0 0 0 0 0 0 0 0 0 0 0 0 0 0 0 0 0 0 0 0 0 0 0 0 0 0 0 0 0 0 0 0 0 0 0 0 0 0 0 0
0 0 0 0 0 0 0 0 0 0 0 0 0 0 0 0 0 0 0 0 0 0 0 0 0 0 0 0 0 0 0 0 0 0 0 0 0 0 0 0 0 0 0 0
0 0 0 0 0 0 0 0 0 0 0 0 0 0 0 0 0 0 0 0 0 0 0 0 0 0 0 0 0 0 0 0 0 0 0 0 0 0 0 0 0 0 0 0
0 0 0 0 0 0 0 0 0 0 0 0 0 0 0 0 0 0 0 0 0 0 0 0 0 0 0 0 0 0 0 0 0 0 0 0 0 0 0 0 0 0 0 0
0 0 0 0 0 0 0 0 0 0 0 0 0 0 0 0 0 0 0 0 0 0 0 0 0 0 0 0 0 0 0 0 0 0 0 0 0 0 0 0 0 0 0 0
0 0 0 0 0 0 0 0 0 0 0 0 0 0 0 0 0 0 0 0 0 0 0 0 0 0 0 0 0 0 0 0 0 0 0 0 0 0 0 0 0 0 0 0
0 0 0 0 0 0 0 0 0 0 0 0 0 0 0 0 0 0 0 0 0 0 0 0 0 0 0 0 0 0 0 0 0 0 0 0 0 0 0 0 0 0 0 0
0 0 0 0 0 0 0 0 0 0 0 0 0 0 0 0 0 0 0 0 0 0 0 0 0 0 0 0 0 0 0 0 0 0 0 0 0 0 0 0 0 0 0 0
0 0 0 0 0 0 0 0 0 0 0 0 0 0 0 0 0 0 0 0 0 0 0 0 0 0 0 0 0 0 0 0 0 0 0 0 0 0 0 0 0 0 0 0
Height
5528 5533 5536 5539 5543 5546 5548 5551 5554 5558 5560 5564 5566 5567 5568 5570 5571 5573 5575 5577 5579 5581 5583 5585 5588 5591 5595 5599 5603 5607 5611 5615 5619 5622 5626 5630 5633 5636 5639 5642 5645 5647 5649 5651
5515 5520 5522 5525 5531 5534 5537 5540 5542 5545 5549 5553 5554 5556 5557 5559 5560 5562 5564 5566 5568 5570 5572 5575 5578 5581 5585 5588 5592 5595 5599 5603 5607 5610 5614 5618 5621 5624 5627 5630 5633 5635 5637 5638
5502 5507 5508 5512 5520 5523 5525 5528 5531 5533 5538 5540 5542 5544 5546 5548 5549 5551 5553 5556 5558 5560 5562 5564 5568 5571 5574 5578 5581 5584 5588 5591 5595 5599 5602 5606 5609 5612 5615 5617 5619 5622 5623 5625
5489 5494 5495 5504 5509 5511 5513 5516 5519 5521 5525 5528 5530 5532 5534 5536 5538 5540 5543 5545 5547 5549 5551 5554 5557 5560 5563 5567 5570 5573 5577 5580 5583 5586 5590 5593 5596 5599 5602 5604 5606 5608 5610 5611
5478 5480 5483 5491 5496 5499 5501 5503 5508 5510 5513 5516 5518 5520 5523 5525 5527 5530 5532 5534 5536 5538 5540 5543 5546 5549 5552 5556 5559 5562 5565 5568 5571 5574 5577 5580 5583 5586 5588 5590 5593 5594 5596 5597
5468 5470 5473 5481 5485 5487 5490 5491 5497 5499 5502 5504 5506 5509 5513 5515 5516 5519 5521 5523 5525 5527 5529 5532 5535 5538 5541 5544 5547 5550 5553 5556 5559 5562 5565 5567 5570 5573 5575 5576 5579 5580 5581 5582
5460 5461 5464 5471 5474 5477 5480 5483 5487 5488 5491 5493 5496 5499 5502 5503 5506 5508 5511 5513 5515 5517 5519 5522 5524 5527 5530 5533 5536 5538 5541 5544 5546 5549 5552 5554 5557 5559 5561 5562 5564 5565 5567 5568
5452 5454 5459 5462 5464 5467 5469 5472 5475 5477 5480 5482 5485 5488 5490 5493 5495 5498 5500 5502 5505 5507 5509 5512 5514 5517 5520 5523 5525 5527 5529 5532 5534 5537 5539 5540 5543 5545 5546 5548 5549 5550 5551 5553
5445 5448 5450 5452 5454 5457 5459 5462 5465 5467 5470 5472 5475 5477 5480 5482 5485 5487 5490 5492 5494 5497 5499 5502 5504 5506 5509 5512 5514 5516 5518 5520 5522 5524 5526 5528 5529 5531 5532 5533 5534 5535 5536 5537
5438 5440 5442 5444 5446 5448 5450 5453 5455 5458 5460 5462 5464 5467 5470 5472 5475 5477 5480 5482 5484 5487 5489 5491 5494 5496 5498 5501 5503 5505 5507 5509 5511 5513 5514 5515 5516 5517 5518 5519 5520 5521 5522 5523
5431 5434 5436 5437 5438 5440 5442 5444 5446 5449 5451 5452 5454 5457 5460 5462 5465 5468 5470 5472 5474 5477 5479 5481 5483 5486 5488 5490 5492 5494 5496 5498 5499 5501 5502 5503 5504 5505 5505 5506 5506 5507 5508 5508
5426 5428 5429 5431 5432 5433 5434 5436 5438 5440 5442 5444 5446 5448 5450 5453 5455 5458 5460 5462 5465 5467 5469 5471 5474 5476 5478 5480 5482 5484 5485 5487 5488 5489 5490 5491 5492 5493 5493 5494 5494 5494 5494 5495
5420 5421 5422 5424 5425 5426 5427 5429 5430 5432 5433 5435 5437 5439 5441 5443 5446 5449 5451 5453 5455 5458 5460 5462 5464 5466 5468 5470 5472 5473 5475 5476 5477 5478 5479 5480 5481 5482 5482 5482 5482 5482 5482 5482
5415 5416 5417 5418 5419 5420 5421 5422 5423 5424 5425 5427 5429 5430 5432 5435 5437 5440 5442 5444 5446 5448 5450 5452 5454 5456 5458 5460 5461 5463 5464 5466 5467 5468 5469 5469 5469 5470 5470 5470 5471 5470 5470 5469
5410 5411 5411 5412 5413 5414 5414 5415 5416 5418 5418 5420 5421 5422 5424 5427 5429 5431 5433 5435 5437 5439 5441 5443 5445 5447 5448 5450 5452 5453 5454 5455 5456 5457 5458 5458 5458 5459 5459 5459 5458 5458 5458 5457
5405 5406 5406 5406 5407 5408 5409 5409 5410 5411 5412 5412 5414 5415 5417 5419 5420 5422 5424 5426 5428 5430 5432 5434 5435 5437 5439 5440 5442 5443 5444 5445 5446 5446 5447 5447 5448 5448 5448 5447 5447 5446 5446 5445
5400 5401 5401 5401 5401 5402 5402 5403 5403 5404 5405 5406 5406 5407 5409 5410 5412 5414 5415 5417 5419 5420 5422 5424 5426 5428 5429 5430 5432 5433 5434 5434 5435 5436 5436 5437 5437 5437 5437 5436 5436 5435 5435 5434
5395 5395 5394 5395 5395 5395 5396 5396 5397 5397 5398 5398 5399 5400 5401 5402 5404 5405 5407 5408 5410 5411 5413 5415 5416 5418 5419 5420 5421 5422 5423 5424 5425 5425 5426 5426 5426 5426 5425 5425 5424 5424 5423 5422
5390 5389 5389 5388 5388 5389 5389 5389 5390 5390 5391 5391 5392 5393 5393 5394 5395 5397 5398 5399 5401 5402 5404 5405 5406 5408 5409 5410 5411 5412 5413 5414 5415 5415 5415 5415 5415 5415 5414 5414 5413 5413 5412 5411
5384 5383 5382 5382 5382 5382 5382 5382 5383 5383 5384 5384 5385 5385 5386 5386 5387 5388 5389 5390 5391 5393 5394 5395 5396 5398 5399 5400 5401 5402 5403 5403 5404 5404 5405 5405 5404 5404 5403 5403 5402 5402 5401 5400
5378 5377 5376 5376 5376 5375 5375 5375 5376 5376 5376 5376 5377 5377 5377 5378 5378 5379 5380 5381 5382 5383 5384 5385 5386 5387 5389 5390 5390 5391 5392 5393 5393 5393 5393 5393 5393 5393 5392 5392 5391 5391 5390 5390
5372 5372 5371 5370 5369 5369 5369 5369 5369 5369 5369 5369 5369 5369 5369 5370 5370 5371 5371 5372 5373 5373 5374 5375 5376 5377 5378 5379 5380 5381 5381 5382 5382 5382 5382 5382 5382 5382 5382 5381 5381 5380 5380 5379
5367 5366 5365 5364 5363 5363 5362 5362 5362 5362 5362 5362 5362 5362 5362 5362 5362 5363 5363 5363 5364 5364 5365 5366 5367 5368 5369 5370 5370 5371 5371 5372 5372 5372 5372 5372 5372 5372 5371 5371 5371 5370 5369 5369
5362 5361 5360 5359 5358 5357 5356 5355 5355 5355 5355 5355 5354 5354 5354 5354 5354 5354 5355 5355 5355 5356 5357 5358 5358 5359 5360 5361 5361 5362 5362 5362 5362 5362 5362 5362 5362 5361 5361 5361 5361 5360 5360 5359
5357 5356 5355 5353 5352 5351 5350 5350 5349 5349 5349 5348 5348 5347 5347 5347 5347 5347 5347 5347 5348 5348 5349 5350 5350 5351 5351 5352 5352 5353 5353 5353 5353 5353 5353 5352 5352 5352 5352 5351 5351 5351 5350 5350
5352 5351 5350 5348 5347 5346 5345 5344 5344 5343 5343 5342 5342 5341 5341 5340 5340 5340 5340 5340 5340 5341 5341 5342 5342 5343 5343 5343 5344 5344 5344 5344 5343 5343 5343 5343 5342 5342 5342 5342 5341 5341 5341 5340
5347 5346 5345 5343 5342 5341 5340 5339 5339 5338 5337 5337 5336 5336 5335 5334 5334 5333 5333 5333 5334 5334 5335 5335 5335 5336 5336 5336 5336 5336 5336 5335 5335 5334 5334 5333 5333 5333 5333 5333 5333 5332 5332 5332
Wind_Speed
47 46 46 46 44 44 45 46 47 45 43 42 41 41 40 39 39 39 38 38 38 39 39 40 42 43 43 42 42 43 43 43 44 45 45 45 45 45 45 45 45 45 45 45
48 47 48 49 48 47 46 46 46 45 44 43 42 41 41 40 40 40 39 38 38 39 39 39 40 42 43 43 42 43 43 43 43 44 44 44 45 45 45 45 45 45 45 46
47 47 48 50 48 48 47 46 46 46 44 43 43 42 41 41 41 41 40 39 39 38 39 39 40 41 43 44 44 43 44 44 45 45 45 45 46 46 47 47 47 47 46 47
45 46 48 46 45 46 46 46 46 45 43 42 43 42 42 42 42 41 41 41 41 40 40 41 41 42 42 44 44 44 45 46 46 46 46 46 46 47 48 48 48 48 48 48
42 43 44 43 42 42 43 44 43 42 41 41 41 41 41 41 40 40 40 40 40 40 40 41 42 42 43 44 44 44 45 45 46 47 47 47 48 48 48 49 49 49 50 50
39 41 42 40 39 40 41 43 40 40 40 39 39 40 39 39 39 39 39 39 39 39 40 40 40 41 41 42 43 44 44 45 46 48 49 49 49 49 50 50 50 50 51 51
34 36 38 38 38 38 40 40 39 39 39 39 38 38 38 38 38 38 37 38 38 38 39 39 39 39 39 39 41 43 44 45 45 47 49 49 50 50 51 51 51 51 52 52
29 31 33 33 36 36 37 36 36 37 37 37 37 37 37 37 37 37 36 37 37 38 38 38 38 38 38 38 39 40 41 42 44 45 46 47 49 50 51 51 51 51 52 52
26 28 29 30 33 35 36 35 35 35 35 35 35 35 35 35 35 35 35 36 36 36 37 37 38 38 38 38 39 39 40 40 42 43 45 46 47 48 49 49 50 50 51 51
24 25 27 28 30 31 33 33 33 33 33 33 33 33 34 34 34 34 33 34 35 35 36 36 37 37 38 39 39 40 40 40 41 42 43 44 45 45 46 46 47 48 50 50
24 24 23 24 26 28 30 31 31 31 32 32 32 32 32 32 33 33 32 32 34 35 36 36 37 37 37 37 37 38 39 39 40 41 42 42 42 43 44 45 45 46 46 46
21 23 23 23 24 25 27 29 30 30 30 30 31 31 32 32 32 32 32 32 32 33 34 34 35 35 35 35 35 36 38 38 39 39 39 40 40 41 42 43 43 43 43 44
18 20 21 22 23 24 25 26 27 28 29 29 29 29 30 30 30 30 31 31 31 32 32 32 33 33 34 34 35 35 36 36 36 36 37 38 39 40 40 40 41 41 42 43
17 18 19 20 21 22 23 23 24 25 26 27 28 28 28 29 29 30 31 32 32 32 32 32 32 32 33 34 34 34 35 36 36 36 37 37 37 38 38 38 39 40 41 42
18 18 18 19 19 20 20 21 22 23 23 24 26 27 28 28 29 30 30 31 32 32 32 32 32 32 33 34 34 34 35 35 36 36 36 36 36 37 37 37 38 38 39 40
18 18 18 19 19 20 20 21 21 22 22 23 24 25 27 28 28 29 29 30 31 31 32 32 32 32 32 33 34 35 36 36 36 36 36 36 36 37 37 37 38 38 39 39
18 18 19 20 20 21 21 22 22 23 23 23 24 25 26 27 28 28 29 30 30 31 32 32 33 33 33 34 35 35 35 35 35 35 35 36 36 36 37 38 38 38 39 39
19 19 20 21 21 22 22 22 23 23 24 24 25 25 26 27 28 29 30 30 30 31 32 33 33 34 35 35 35 35 35 34 35 35 35 35 36 36 37 37 38 38 38 39
19 20 20 21 21 22 22 22 22 23 23 24 24 25 26 27 28 29 30 31 32 32 33 33 34 35 35 35 35 34 34 35 35 35 35 36 36 37 37 37 37 37 37 37
20 20 20 21 21 22 22 22 22 23 24 24 25 25 26 27 28 29 29 30 31 33 34 34 34 34 34 34 35 35 35 35 36 36 36 36 36 36 36 36 36 36 36 36
19 20 20 20 20 21 21 22 22 23 24 24 24 25 25 26 27 28 28 28 30 31 32 32 33 33 34 34 34 34 35 35 36 36 36 36 35 35 35 35 34 35 34 34
19 20 19 20 20 20 20 21 22 23 23 24 24 24 25 25 26 27 27 27 28 29 29 29 30 31 31 32 32 32 33 34 34 34 34 34 34 33 33 33 33 33 33 33
18 18 18 18 19 19 20 21 21 22 23 23 24 24 24 25 25 26 26 26 27 27 27 27 27 28 28 29 29 30 30 31 31 31 32 32 32 32 32 32 32 32 32 32
16 16 16 17 17 18 19 19 19 20 20 21 21 22 22 23 23 24 24 25 25 25 25 26 26 26 27 27 27 28 28 29 29 29 30 30 30 30 31 30 30 30 30 30
16 16 16 16 16 17 17 17 17 18 18 19 19 20 20 21 21 22 23 24 24 24 25 25 25 26 26 26 26 27 27 28 28 29 29 29 29 29 30 29 29 29 29 29
16 16 16 16 15 15 15 16 16 16 17 17 17 18 18 19 19 20 21 21 22 22 22 22 23 23 23 24 24 25 25 26 27 28 28 28 28 28 27 27 27 27 27 27
16 16 15 15 15 15 15 15 15 16 16 16 17 17 17 17 17 17 17 17 18 18 19 19 20 20 21 21 21 21 22 22 23 23 23 24 24 24 24 24 24 25 25 24
Wind_Direction
248 249 252 252 252 252 253 255 257 258 258 258 259 260 261 261 261 261 260 259 258 258 256 252 249 247 246 245 245 244 246 246 247 248 248 249 249 251 253 254 255 256 257 259
249 249 250 251 250 252 253 254 256 257 257 258 258 259 259 259 259 259 258 257 256 255 253 252 251 249 249 246 247 247 248 248 247 248 248 250 251 252 253 255 256 257 259 260
249 247 249 250 250 252 253 254 256 257 258 258 257 257 258 257 257 257 257 255 255 253 252 252 251 250 249 249 248 249 249 249 249 249 250 251 252 254 255 256 257 259 260 261
249 247 248 251 251 251 253 253 254 255 255 256 256 256 256 255 256 256 256 255 255 254 253 252 251 250 250 248 248 249 249 250 251 250 250 251 253 254 256 257 259 260 262 264
249 250 250 250 251 252 253 253 253 254 254 254 255 255 255 256 256 255 255 255 255 254 253 251 250 250 250 250 249 251 251 251 251 252 252 253 254 256 258 259 261 262 264 266
250 251 252 251 252 253 254 254 252 253 255 255 255 255 255 255 255 254 254 254 255 253 252 251 251 250 251 251 251 252 252 252 252 253 254 255 256 258 259 261 262 263 265 266
251 253 252 252 253 253 254 255 255 255 255 255 255 256 256 255 254 253 253 254 255 253 252 252 252 251 251 252 252 253 253 253 254 254 255 257 258 259 260 262 263 265 265 266
251 251 250 251 253 253 255 256 256 256 256 256 256 256 255 254 254 253 253 253 253 253 252 252 251 251 252 253 253 253 255 255 256 256 258 259 260 261 262 264 265 265 266 266
249 248 249 251 253 253 254 255 255 256 256 257 257 256 256 255 254 252 251 251 252 252 252 252 252 252 252 252 253 254 255 256 257 258 260 261 262 263 264 265 265 266 266 267
247 248 251 252 252 253 254 255 255 255 255 256 257 256 255 254 254 252 250 250 251 251 252 252 252 252 252 252 253 255 256 257 258 259 261 261 262 263 264 265 265 266 266 267
247 250 255 253 252 252 253 253 254 254 254 255 256 255 254 253 252 251 250 250 250 249 250 252 252 253 254 254 255 255 256 258 259 261 262 263 264 265 265 265 265 266 266 266
250 252 255 255 255 256 255 254 254 254 253 252 254 254 253 251 250 249 249 249 250 250 251 251 252 252 253 254 256 257 258 260 261 262 263 264 264 265 266 266 266 266 266 267
254 255 257 257 258 258 257 256 255 253 252 252 251 252 250 247 246 247 249 250 251 252 252 253 253 252 252 253 254 256 257 260 261 262 263 263 265 266 267 267 267 268 268 269
257 259 258 256 257 257 258 258 256 254 253 252 251 250 248 247 248 250 251 252 252 253 253 253 253 252 253 255 256 257 259 260 261 263 264 265 266 267 267 268 268 269 271 272
265 264 261 258 258 258 258 258 259 258 257 256 255 253 250 249 250 251 252 251 252 252 252 252 253 253 255 256 258 260 261 262 263 264 265 267 268 268 269 270 271 272 273 274
269 268 264 260 259 260 260 261 262 261 260 259 258 256 254 252 252 252 251 251 252 252 251 251 252 254 256 258 259 261 262 264 265 265 266 268 269 270 271 272 273 273 274 275
270 269 266 263 263 263 264 264 264 264 263 261 260 258 256 255 254 253 253 254 253 252 252 252 253 254 257 259 260 261 262 263 265 266 267 268 270 271 272 273 274 275 275 275
274 274 273 270 268 268 267 267 266 264 263 262 262 260 258 257 256 256 256 255 255 254 253 254 255 256 258 260 261 262 262 262 264 266 268 269 271 272 274 274 275 276 276 276
273 273 273 271 268 269 268 267 265 264 263 263 264 262 260 259 259 259 259 258 256 256 256 256 257 258 259 260 260 261 262 263 264 266 269 271 273 274 275 275 275 275 275 276
276 277 276 272 269 268 267 266 264 263 263 264 264 263 262 261 261 261 261 260 259 258 258 258 258 259 259 260 261 262 264 265 266 268 270 271 273 274 275 275 275 275 276 276
280 279 277 274 271 270 269 267 265 264 265 266 266 266 264 263 263 263 262 262 261 260 259 259 260 260 261 262 262 263 265 267 269 270 271 272 274 275 275 275 276 276 275 276
281 279 278 277 274 272 270 270 268 268 268 268 269 269 267 266 265 265 264 264 264 263 261 261 262 262 263 263 264 265 267 269 270 271 271 272 273 274 274 275 275 276 276 276
284 282 280 278 276 274 273 272 271 270 270 270 272 271 270 268 267 266 266 265 265 264 262 261 262 263 263 264 265 266 268 269 271 271 271 272 273 274 274 274 275 275 275 275
287 287 286 285 284 281 279 276 274 272 271 271 273 274 272 269 268 267 266 265 264 263 262 262 263 264 264 265 266 267 268 269 270 272 272 273 273 274 274 274 275 274 274 274
289 290 289 288 288 285 282 280 278 275 273 273 275 276 274 272 269 268 267 266 264 263 264 264 264 265 267 268 268 268 269 269 270 272 272 273 273 273 273 273 273 273 273 274
288 288 288 288 287 286 285 281 279 278 277 277 277 279 280 277 274 270 268 266 265 264 265 265 265 266 268 269 270 271 271 271 272 273 273 273 273 273 273 273 273 273 273 274
288 289 289 288 289 289 287 285 282 280 278 279 281 282 282 281 278 274 270 267 266 265 265 265 265 267 269 270 271 273 274 274 274 274 274 273 272 271 272 272 272 272 273 274